千帆星座-70 (QIANFAN-70)

导读

QIANFAN-70 是中国自主研发的北斗卫星导航系统中的重要成员,主要用于提供高精度定位、导航和授时服务。该卫星采用先进技术和稳定平台,具备更强的信号覆盖能力和抗干扰性能,广泛应用于交通、农业、通信、应急救援等多个领域。QIANFAN-70 的成功发射和运行,进一步提升了北斗系统的全球服务能力,增强了我国在卫星导航领域的自主可控能力,对推动国家信息化建设和国防安全具有重要意义。

基本信息
目录编号:
62800
目录名称:
QIANFAN-70
国际标识:
2025-016R
轨道中心:
EARTH
卫星名称:
千帆星座-70
卫星全名:
千帆星座-70 (QIANFAN-70)
卫星状态:
在轨 (已飞行550 天)
发射日期:
2025-01-23 UTC
国别 :
中国 (CN)
星等 :
--
轨道信息
数据来源 国际轨道数据 AOE轨道数据
星历时间 2026-07-27T23:26:47+0800
6小时前
查看轨道信息
2026-07-26T00:00:00+0800
2天前
查看轨道信息
半长轴 7446.65km 7446.651km
偏心率 0.0017037 0.001712
轨道倾角 88.970° 88.971°
近地点辐角 44.229° 49.262°
升交点赤经 79.566° 79.771°
平近点角 316.022° 61.570°
近地点 1055.826km 1055.765km
远地点 1081.2km 1081.263km
周期 106.586分钟 106.586分钟
每日圈数 13.510187 13.510186
详细信息
卫星平台:
70
覆盖范围:
全球
运营商:
上海垣信卫星科技有限公司
运营商所在国:
中国
使用方式:
暂无
卫星简介
千帆星座,也被称为“G60星链”计划,是中国版“星链”的重要组成部分,旨在打造一个由1.4万多颗低轨宽频多媒体卫星构成的庞大星座。千帆星座计划由上海垣信卫星科技有限公司负责实施,于2023年启动建设。该项目是我国第二个低轨卫星大星座,旨在通过构建庞大的卫星网络,为全球用户提供高质量的通信和宽带互联网服务。
2D轨道图
3D轨道图
轨道高度分析图
轨道倾角分析图
轨道综合分析图
查看轨道综合分析图